User: anonymous   Login
Location: Fishcreek Rd Observing Site
(41.1865°N, 81.4271°W)
Time: 16:45:07
(UTC-04:00)
Language:

Iridium 45 - Orbit

View from above orbital plane
View from above orbital plane
View from above satellite
View from above satellite

Ground track
Ground track

The orbit data is extracted from the following two-line orbital elements,

1 25104U 97082A   17176.22487619 +.00000166 +00000-0 +52144-4 0  9992
2 25104 086.3964 283.8508 0001317 093.9025 266.2321 14.34216308021269
Epoch (UTC): 25 June 2017 05:23:49
Eccentricity: 0.0001317
inclination: 86.3964°
perigee height: 777 km
apogee height: 778 km
right ascension of ascending node: 283.8508°
argument of perigee: 93.9025°
revolutions per day: 14.34216308
mean anomaly at epoch: 266.2321°
orbit number at epoch: 2126

The dashed part of the orbit path shows where the satellite is in the earth's shadow,  

DLR